RH
19 27 50 72 92 74 88 79 86 87 80 92 91 98 98 92 97 98 98 99 86 96 97 97 98 98 98 97 99 99 99 88 39 17 9 8 7 6 6 6 6 6 8 9
14 26 31 38 34 32 34 52 57 64 61 100 100 98 84 97 97 98 98 98 95 98 100 99 97 96 98 97 97 97 99 96 98 93 85 90 95 100 95 45 22 71 71 79
12 20 23 29 20 16 15 14 24 51 46 76 97 95 91 92 83 92 94 97 98 98 98 97 98 98 99 98 98 98 98 98 94 98 99 95 96 96 97 86 97 98 97 88
7 12 17 24 22 19 15 14 13 12 12 19 82 63 72 62 51 60 77 68 79 95 96 96 90 93 79 81 97 98 98 98 97 95 96 97 98 98 99 95 97 97 96 94
7 6 12 17 18 20 17 15 14 12 10 8 20 49 32 32 20 38 55 59 33 24 51 58 65 86 60 27 59 88 94 98 98 96 98 98 97 97 97 98 97 97 97 97
6 6 7 13 12 15 12 11 15 13 11 6 6 9 16 22 18 15 39 30 46 20 38 12 13 22 30 11 11 34 42 52 69 36 86 95 88 95 97 97 97 97 94 95
6 5 6 6 8 9 8 7 6 8 10 9 6 5 10 15 8 8 14 10 8 9 15 7 10 11 12 17 14 17 20 26 20 26 19 27 53 32 40 40 45 52 40 26
11 8 8 8 6 7 8 7 6 7 8 9 8 7 8 8 6 6 9 7 8 9 10 16 14 14 15 15 15 16 17 18 16 16 17 17 17 16 16 14 13 13 13 11
27 20 14 16 15 13 12 10 8 8 8 9 9 8 8 9 9 8 8 9 10 11 12 13 14 14 16 17 18 19 19 18 16 15 16 16 17 16 15 13 11 10 9 7
26 34 34 32 27 21 19 17 16 11 8 7 8 10 10 10 12 12 11 11 13 14 16 17 17 17 18 18 19 19 20 19 19 18 18 16 15 16 14 13 10 9 8 7
11 10 11 15 28 39 40 29 23 17 13 9 8 9 11 12 11 12 12 12 13 15 17 18 18 18 20 23 24 25 26 23 20 18 19 20 19 18 16 14 12 10 9 9
13 13 12 11 10 11 16 37 41 32 23 16 12 10 10 11 12 11 12 13 13 15 18 17 18 21 22 23 26 27 25 23 21 19 16 16 16 18 18 16 14 13 12 12
10 10 10 12 12 13 12 11 12 28 36 33 22 15 12 11 11 13 13 13 14 16 18 20 25 27 26 27 28 26 22 20 19 17 17 18 20 21 24 25 26 27 25 27
9 9 9 9 10 10 12 11 10 10 9 13 27 36 27 16 14 13 14 15 16 16 17 21 26 28 30 30 31 29 26 22 20 20 21 24 26 27 26 24 26 28 28 28
16 12 13 9 9 10 10 9 9 9 9 9 8 8 14 34 32 19 17 17 17 18 19 20 23 26 25 25 28 28 30 30 26 22 21 23 25 30 31 33 34 34 32 31
30 25 16 11 10 12 10 10 12 12 11 9 8 9 8 7 8 28 37 21 18 19 20 21 22 26 26 25 24 25 28 30 30 26 24 24 27 31 35 36 36 38 36 35
38 31 21 14 11 13 12 17 18 18 15 12 10 9 7 7 7 7 6 22 37 22 20 21 22 24 25 27 24 23 23 26 29 31 32 32 31 31 32 34 35 38 41 39
50 42 31 15 10 11 13 15 21 25 21 17 14 10 8 8 8 8 7 7 6 34 38 26 23 23 26 29 28 25 24 22 25 27 28 30 33 38 41 42 40 42 42 43
60 55 49 39 26 19 18 19 21 27 27 19 17 12 9 9 9 7 7 7 9 8 38 43 37 32 25 26 28 29 28 25 23 24 27 30 34 39 44 46 45 45 47 55
60 61 59 54 46 44 43 40 38 37 35 29 23 15 10 11 12 11 6 5 10 10 9 51 49 48 45 39 34 29 28 27 27 26 26 28 36 40 43 47 49 50 58 58
82 91 83 56 53 54 60 57 50 42 33 34 24 14 16 20 17 11 6 8 15 14 12 39 57 52 60 55 51 48 47 44 41 40 40 39 38 42 49 55 58 62 66 62
87 98 98 90 71 71 75 69 57 48 39 34 25 24 30 26 16 10 7 9 13 14 15 42 76 53 61 69 71 69 66 64 66 65 62 56 55 56 58 67 72 75 70 64
88 92 97 96 96 92 74 65 68 64 55 46 30 23 20 20 14 7 8 11 13 17 19 43 76 59 54 59 65 73 88 96 93 88 86 83 74 71 74 84 87 82 72 64
98 99 99 94 81 71 70 75 76 71 61 51 32 19 13 9 7 9 9 12 19 27 35 66 100 80 67 67 67 62 69 98 100 100 100 96 90 89 94 98 97 83 74 64
90 75 62 62 67 68 70 73 66 59 44 26 17 12 9 8 8 10 13 18 33 42 58 52 98 100 100 82 86 93 94 89 100 100 100 100 100 100 100 100 93 85 79 76
82 77 73 76 74 76 74 67 50 33 21 15 11 9 10 11 13 15 21 43 57 67 100 100 86 100 100 100 100 100 100 100 100 100 100 100 100 100 98 97 90 90 88 85
94 82 76 74 76 79 67 45 30 20 12 9 9 12 14 17 22 31 44 99 94 97 100 100 100 100 100 100 100 100 100 100 99 99 100 100 100 100 100 100 99 98 97 92
Wind_Speed
18 20 21 21 20 24 27 23 22 27 16 15 13 15 21 25 26 25 27 23 26 30 31 29 31 21 15 15 19 18 15 14 10 13 18 21 23 26 28 30 31 34 34 38
14 17 20 19 20 20 20 19 18 17 23 16 17 19 19 23 24 20 25 29 27 28 33 28 30 29 32 31 17 12 12 5 10 7 20 20 19 18 19 23 26 17 21 20
11 13 15 16 17 20 21 21 18 17 17 18 13 10 19 21 26 24 28 21 28 33 31 37 38 40 34 31 38 30 18 24 9 10 23 27 23 21 17 19 20 11 16 18
7 9 9 11 9 12 15 18 18 17 18 17 13 15 16 19 21 23 24 28 31 27 29 31 28 29 35 34 31 34 29 40 21 16 16 16 22 18 19 16 13 12 9 13
5 9 9 9 11 10 12 15 19 18 20 15 11 16 16 17 17 17 15 19 19 21 25 26 29 31 30 29 35 42 42 33 38 38 26 21 19 15 18 19 7 7 8 13
7 8 8 10 12 13 17 16 18 21 23 21 17 15 14 14 17 13 10 12 16 15 21 19 24 25 27 29 28 37 37 36 40 36 40 37 34 28 24 17 16 20 22 22
10 11 12 14 15 18 19 21 26 25 25 22 20 19 14 15 17 8 8 8 7 11 17 18 20 22 22 25 27 30 30 29 29 32 30 31 31 27 27 26 26 25 24 21
10 14 15 17 18 19 22 25 25 24 26 22 18 17 14 10 8 6 3 7 9 11 13 17 16 17 18 19 20 20 19 20 20 21 21 20 20 18 17 16 14 14 13 11
13 11 13 16 18 17 16 18 18 21 21 19 12 13 12 11 5 2 7 8 9 9 10 10 10 10 10 12 13 13 14 14 14 14 14 14 13 12 10 10 9 7 7 6
18 18 19 19 19 19 19 17 15 15 15 13 12 13 12 13 14 6 5 7 7 5 5 4 4 6 8 10 11 13 14 14 14 13 11 11 11 10 8 7 5 4 5 7
17 20 22 22 23 22 21 21 19 17 15 13 14 13 16 16 13 14 11 9 9 7 5 3 5 8 10 13 17 17 16 15 15 14 12 12 12 11 10 10 11 11 11 13
21 23 21 21 22 21 20 22 22 22 20 18 18 17 18 19 19 19 18 17 16 15 12 12 11 11 14 18 19 19 18 18 17 16 15 13 13 13 12 12 14 16 19 23
24 23 26 24 21 19 21 20 19 21 25 27 26 25 24 23 25 25 26 25 23 22 21 20 18 18 18 19 21 21 21 19 18 18 17 16 14 14 15 16 18 21 23 26
21 24 25 21 20 21 20 20 22 22 21 24 31 33 32 32 31 30 29 30 32 32 29 27 26 25 23 23 23 23 22 22 22 21 20 19 18 20 22 22 23 25 29 31
24 24 28 26 22 22 22 22 19 19 22 23 22 25 32 36 37 37 37 36 34 35 37 36 34 32 30 30 29 27 26 26 26 26 26 24 25 25 26 26 29 31 33 34
26 27 28 28 24 26 24 23 22 23 21 23 25 26 26 27 33 40 43 44 44 42 40 40 41 40 38 37 35 32 31 30 30 30 30 30 30 31 30 32 34 36 37 38
27 29 31 30 29 30 29 27 29 29 30 29 27 26 29 31 33 34 39 48 50 50 49 48 45 44 44 43 41 38 37 35 34 34 34 35 36 37 36 37 41 41 41 43
34 31 34 35 33 33 34 33 35 37 38 38 37 35 34 36 38 41 44 46 49 54 55 53 52 51 48 47 47 45 43 41 40 39 39 39 39 40 39 40 42 43 45 47
39 37 36 37 39 39 41 43 44 44 43 44 44 44 40 41 45 51 58 57 55 55 60 59 56 54 54 52 51 50 49 48 46 45 43 42 42 42 42 42 43 44 45 46
41 42 43 42 42 44 44 47 48 49 49 50 50 51 48 50 52 58 61 60 60 58 62 62 61 56 54 54 53 52 51 49 48 47 46 45 44 44 44 45 45 45 46 47
43 45 46 49 48 48 46 48 52 51 52 53 54 54 56 59 63 64 67 66 61 60 59 63 62 58 54 53 52 51 51 49 48 46 47 47 46 45 45 45 45 45 46 48
46 48 48 51 51 55 53 55 55 55 53 55 58 63 65 65 71 72 71 72 63 57 61 58 58 58 55 51 49 49 49 48 47 47 47 46 45 44 44 45 45 45 47 47
53 51 52 53 54 54 56 60 60 58 59 60 62 63 65 71 74 76 74 67 60 54 59 60 57 58 56 53 49 47 47 46 47 47 46 44 44 44 44 45 45 45 45 46
49 51 49 51 54 58 60 64 63 63 64 64 66 66 70 74 75 77 72 62 51 55 57 59 53 54 55 55 53 49 47 48 48 46 43 42 43 44 44 44 44 44 44 45
43 43 43 50 55 59 60 60 61 64 64 66 70 73 76 74 73 70 61 49 47 52 51 57 53 54 54 52 52 52 51 50 49 44 42 42 43 43 43 42 41 41 43 45
47 50 51 53 56 57 57 60 61 64 67 72 73 75 74 72 67 57 47 42 43 43 41 45 50 50 54 51 50 52 53 51 49 46 42 41 41 39 39 38 39 40 43 44
49 52 53 52 54 58 61 62 65 67 72 73 72 71 67 63 50 42 38 30 36 41 41 43 41 41 50 52 49 50 51 50 50 47 41 38 36 36 36 38 39 40 42 43
Wind_Direction
50 53 56 58 45 48 55 53 47 29 44 36 30 35 32 28 27 27 28 26 26 18 21 34 40 37 24 45 39 32 41 71 114 158 173 182 191 198 207 214 220 228 239 243
38 50 49 48 50 49 46 48 46 35 34 34 50 45 34 24 24 31 36 38 53 45 44 41 37 39 52 47 43 50 13 59 80 96 135 142 150 157 176 188 185 188 219 234
36 33 38 41 50 44 38 34 33 37 24 22 37 36 23 18 15 25 18 29 42 50 64 58 56 52 50 55 49 50 46 41 80 144 145 127 134 147 154 174 173 206 219 186
23 18 15 33 39 26 29 23 29 27 13 14 10 5 354 0 0 5 14 15 12 23 37 46 52 57 52 48 60 63 56 57 104 84 155 148 139 144 151 156 201 191 207 174
335 356 353 355 359 357 355 4 5 5 3 353 341 331 331 338 351 357 10 14 14 29 36 43 50 58 58 54 53 61 61 67 70 76 106 119 133 130 153 170 164 151 109 143
293 313 337 326 333 337 337 344 342 345 350 347 339 319 319 330 329 336 359 12 4 37 42 56 65 64 63 65 66 68 64 63 64 69 64 82 76 84 102 128 139 95 94 106
285 292 302 319 319 321 324 328 330 330 333 336 333 323 306 314 330 328 320 358 63 74 84 70 72 76 79 71 67 71 75 68 69 71 72 75 72 76 76 74 74 74 76 79
320 309 309 307 314 317 317 318 319 319 323 323 325 323 307 307 314 339 127 114 98 93 92 86 77 76 74 74 68 67 62 64 60 64 67 65 69 73 72 78 77 83 86 80
321 330 306 318 321 323 330 334 330 319 311 306 309 321 317 318 333 116 139 138 124 115 107 98 90 75 60 56 45 50 46 36 37 35 37 36 39 39 41 46 52 56 58 52
318 315 309 310 311 313 316 318 327 335 326 308 303 315 312 310 309 290 205 177 152 143 132 109 63 31 16 12 5 360 0 357 354 354 357 357 355 356 352 0 6 356 353 343
335 328 323 315 309 308 311 312 318 319 324 318 300 303 310 303 285 284 268 235 222 222 223 260 311 328 332 333 328 325 323 321 320 323 332 334 334 338 338 332 331 327 324 322
345 339 343 347 342 333 319 309 307 308 307 303 302 298 297 297 295 273 261 261 261 257 255 261 270 288 303 312 314 310 303 300 302 306 309 316 323 327 324 321 320 319 318 315
334 335 336 340 344 342 343 334 317 302 299 299 296 292 289 285 287 287 282 269 259 260 264 268 272 277 285 298 305 305 305 303 300 300 299 304 305 307 309 308 312 311 308 306
316 315 315 320 337 340 338 341 340 341 330 306 296 294 290 284 280 278 277 277 276 270 265 264 266 272 281 287 293 293 293 292 289 287 286 284 288 294 295 297 299 298 298 299
294 294 302 301 308 313 318 325 330 338 338 333 328 306 290 284 282 279 275 271 268 269 273 273 269 268 272 276 279 284 284 284 282 280 280 280 284 288 291 295 296 297 299 301
288 287 285 289 284 288 297 306 309 310 311 322 321 322 319 307 291 280 278 275 271 269 266 268 271 269 270 272 274 277 280 280 279 279 280 280 280 284 286 289 292 296 299 302
276 274 275 276 272 279 278 288 294 298 301 301 304 311 312 309 310 307 291 276 273 269 267 266 264 265 268 269 271 272 275 277 279 279 280 281 283 285 286 288 290 294 298 300
270 271 270 271 269 270 272 275 285 289 290 290 292 294 299 304 301 299 298 294 279 269 266 263 264 263 262 264 266 269 272 274 275 276 278 280 283 285 285 287 290 294 297 300
266 267 270 269 269 270 273 275 276 280 282 284 287 289 290 298 303 303 301 295 285 273 263 261 259 260 261 261 262 264 267 271 272 273 274 277 278 281 283 286 290 294 297 300
267 267 267 266 267 269 275 276 278 280 280 280 283 286 285 291 295 299 299 295 288 281 268 260 257 256 257 259 261 263 265 267 269 270 273 275 276 278 280 284 287 292 296 300
275 266 268 267 267 271 275 278 276 280 280 279 279 283 286 290 290 292 292 286 283 278 269 260 258 255 255 255 257 261 263 265 267 269 272 273 275 277 278 281 286 290 295 299
277 271 269 266 267 270 275 279 282 280 282 281 279 281 282 285 288 292 289 288 286 280 271 259 255 254 253 253 254 256 259 262 265 267 269 271 274 276 278 281 284 289 295 297
279 278 276 275 274 276 277 278 282 282 284 286 286 285 285 286 289 289 287 286 280 269 264 257 252 250 252 252 253 255 257 259 262 264 268 271 273 274 275 279 284 290 293 297
284 285 282 280 277 276 278 280 283 284 284 284 285 287 288 289 288 287 286 283 270 260 255 252 249 248 249 251 253 255 257 258 259 262 266 268 269 271 275 279 285 290 294 299
280 282 284 282 282 282 281 281 283 284 287 287 289 291 291 290 288 287 288 277 264 255 251 252 251 248 244 248 251 253 253 256 258 260 263 265 268 271 275 280 286 290 294 300
282 284 284 283 285 284 283 283 285 287 289 291 293 293 292 291 291 292 280 268 261 247 243 251 250 254 243 242 247 251 252 254 259 260 261 267 271 276 280 283 286 289 295 299
287 288 286 286 284 283 284 286 288 291 293 293 295 294 294 296 293 283 271 253 250 233 241 241 254 264 251 241 242 247 252 255 258 262 271 273 275 276 278 282 285 289 295 298